Vertical_Velocity
2 1 0 2 1 -0 1 4 2 -1 0 2 5 3 3 2 0 5 -6 2 6 9 -1 -1 -2 -1 -1 0 2 -0 -1 2 2 2 1 -0 1 -0 3 3 2 2 2
0 0 0 3 3 4 -4 3 -2 -0 0 -3 -3 5 3 1 0 -0 -2 -1 -3 -1 1 2 5 -0 0 1 2 1 -1 -4 1 1 3 3 1 -1 -0 -1 -1 -0 -0
-1 -0 -1 1 -5 9 2 10 2 -1 2 -0 -1 2 1 -3 -1 -0 -0 -1 0 -2 2 1 -1 0 -1 -1 3 2 -3 -2 -5 -1 -0 4 2 3 0 -0 -1 -0 -3
2 1 -1 1 3 2 -3 -2 -3 -0 1 -2 -4 -2 1 3 2 3 2 2 0 -0 -1 -3 -1 1 2 1 -1 2 5 3 2 7 5 6 3 3 3 3 -1 -0 -0
-0 1 -1 -2 -0 -0 0 -2 -2 -4 -5 -3 -1 -0 0 0 2 -0 -0 -1 0 -0 0 0 -1 -2 1 -2 0 -2 1 -0 -1 -2 0 2 1 3 1 2 2 2 2
-2 -2 -1 2 2 2 2 3 3 1 0 2 2 1 -1 -2 -1 -1 -1 -0 2 -2 -3 -2 0 -2 -1 0 2 4 -1 -4 -4 28 -3 -1 2 -1 3 2 4 5 -1
1 2 2 2 1 1 1 -0 0 1 1 -0 -1 -2 -4 -3 -3 -5 -4 -4 -6 -2 -2 -2 -4 0 2 2 2 -1 3 10 24 1 31 6 11 4 16 4 2 2 1
-1 -2 -2 -1 -1 -1 -1 -1 -2 -1 -0 -0 -1 1 1 -1 -2 -0 -1 -1 -1 -4 -3 -0 2 0 -1 -3 -3 -2 1 -1 28 3 -5 23 16 10 14 16 17 8 7
0 1 1 -1 -1 -2 -2 -3 -3 -2 -1 -1 -2 -2 -1 -1 -1 -1 -1 -1 -2 -3 -2 -3 -4 -4 -4 -4 1 4 1 -2 5 5 22 -2 -12 -12 -6 -2 5 5 -1
-1 -0 -0 -1 -2 -2 -1 -1 -2 -3 -2 -0 -0 -2 -2 -1 -2 -2 -2 -2 -1 -1 -2 -2 -2 -4 -9 -3 -4 -2 5 3 0 2 -1 8 -0 -5 -6 -3 0 -0 -4
-1 -1 -1 -0 -0 -0 -0 -0 1 2 -0 -1 -1 0 0 -1 -1 -1 -1 -1 -2 -1 0 0 1 2 3 2 -3 -3 -3 -1 -4 -6 -0 -2 -1 -1 1 -2 4 -1 -2
1 0 -1 -2 -1 -2 -2 -2 -1 -1 -1 -2 -2 -2 -3 -2 -2 -2 -2 -1 0 -0 -1 -3 -4 -3 -1 1 1 -1 -1 0 1 0 -3 0 1 0 -0 -0 1 3 -1
-1 -1 -1 -2 -3 -3 -4 -2 -1 1 1 0 1 2 3 2 1 -0 -1 1 1 -1 -1 -3 -5 -2 3 3 3 3 1 1 2 2 3 1 1 2 -3 -0 -3 -0 2
-0 1 1 -1 -2 -2 -2 -2 -2 -2 -1 -1 1 0 -0 -2 -1 -1 0 -1 -1 -2 -2 -1 -2 -3 -4 -2 -2 -3 -5 -6 -5 -2 -0 1 -2 -3 -2 2 1 -6 -1
-1 0 -1 -1 -2 -2 -2 0 2 -0 0 -2 -2 1 -1 -1 -1 -1 0 -1 -1 -2 -2 -2 1 2 1 0 -1 -1 -1 -0 0 0 1 1 1 -0 -1 -1 -2 -3 0
0 0 -2 -2 -3 -0 -0 1 1 -2 -3 -2 -0 0 -4 -2 -3 -1 -2 -2 -0 -2 -2 -2 0 0 1 1 2 3 2 0 -1 -1 -2 -1 0 1 -0 -2 -1 1 0
-2 -1 -3 -5 -3 -2 -2 -3 -1 -0 -4 -4 -6 -5 -3 -2 -3 -4 -3 -1 -2 -2 -1 -3 -2 -1 -2 -2 -2 1 2 2 0 -0 1 0 0 0 0 -0 -1 0 0
-3 -2 -1 -3 -3 -1 -2 -3 -2 -3 -1 1 -1 -1 0 0 0 -2 -2 -2 -1 -0 -2 -3 -4 -4 -2 -0 0 -0 -2 -1 -0 1 0 -0 0 2 2 1 1 2 1
-5 -3 -3 -3 -3 -3 -1 1 -0 0 -1 -1 -3 -4 -3 1 -1 -2 -1 1 -0 -2 -2 -0 -0 -2 -2 -3 -3 -5 -3 -2 1 1 -1 -1 -1 -0 -1 2 2 -0 1
-3 -0 -2 -1 -0 -2 -1 -0 1 -1 -4 2 1 -1 0 -1 -2 -3 -3 -3 -3 -3 -3 -3 -4 -3 -2 -0 1 2 1 1 1 -0 -1 -0 -2 -1 0 0 -3 -2 -2
-3 -2 -4 -2 -0 -3 -2 -1 2 1 1 1 -2 -1 2 -1 -3 0 2 1 -1 -1 -1 -1 -2 -3 -2 -2 -2 -2 -2 -2 0 1 1 -1 -2 -0 -1 -2 -0 -2 -1
-1 -3 -4 -2 -1 1 -0 -1 -2 -2 -4 -3 -2 0 -1 -3 1 1 -0 0 -2 -2 -1 -1 -2 -2 -1 -2 -2 -1 -2 -2 -1 -1 -1 -1 -0 -0 2 2 1 -1 0
-0 -3 -4 -3 2 1 2 -4 -2 0 0 -4 -2 2 -1 -1 1 -0 -2 -1 -1 -1 -0 0 -1 -3 -3 -1 1 1 1 -0 -1 1 2 -2 -2 -1 0 1 1 0 -0
-3 -3 -3 -3 -2 -2 1 0 -1 -3 -3 0 1 -3 -4 -5 -2 -3 -5 -4 -1 -1 1 -1 -1 -0 -1 -1 -1 -1 -0 1 1 -0 1 1 -0 -0 1 1 1 -0 -0
-2 -2 0 -1 1 4 1 3 -0 0 1 4 -0 3 -1 -1 -0 -1 -0 -1 -2 -2 -1 -0 -0 -2 -3 -2 -1 -1 -1 -2 -1 1 1 0 1 1 1 0 -0 -1 -0
-1 -5 -2 -3 1 -1 -1 -2 -6 -3 2 3 3 2 1 1 0 -1 -1 -2 -3 -2 -0 -1 -1 -1 -2 -2 -2 -2 -1 -1 -1 1 1 0 -0 -1 0 1 1 0 -0
Height
5927 5925 5924 5923 5922 5920 5919 5918 5915 5913 5909 5906 5904 5899 5897 5893 5889 5884 5882 5879 5866 5867 5874 5875 5874 5872 5870 5868 5868 5868 5868 5869 5869 5869 5870 5869 5868 5868 5869 5870 5869 5868 5870
5927 5925 5924 5922 5920 5919 5917 5915 5912 5909 5905 5902 5899 5896 5892 5889 5886 5882 5879 5873 5865 5866 5866 5864 5866 5865 5862 5858 5856 5858 5858 5859 5861 5861 5862 5862 5861 5861 5860 5859 5862 5862 5860
5926 5924 5923 5921 5918 5917 5915 5912 5908 5905 5901 5898 5895 5892 5888 5883 5879 5876 5872 5868 5865 5863 5861 5860 5857 5856 5853 5850 5848 5847 5847 5847 5849 5850 5852 5852 5851 5851 5851 5851 5850 5851 5854
5926 5924 5922 5920 5916 5914 5912 5909 5906 5902 5897 5892 5888 5885 5882 5878 5874 5870 5865 5862 5860 5858 5856 5853 5851 5848 5845 5842 5840 5839 5839 5839 5838 5838 5838 5838 5837 5839 5840 5840 5840 5842 5842
5925 5923 5920 5917 5914 5910 5907 5904 5901 5897 5894 5890 5886 5881 5877 5873 5869 5864 5861 5857 5855 5852 5848 5846 5843 5840 5837 5835 5833 5831 5830 5829 5829 5827 5826 5825 5823 5822 5825 5828 5829 5830 5830
5923 5920 5918 5914 5911 5908 5904 5900 5897 5893 5888 5885 5881 5877 5873 5869 5865 5862 5858 5854 5850 5846 5843 5840 5837 5833 5831 5828 5826 5824 5822 5820 5817 5812 5814 5813 5813 5810 5810 5813 5816 5817 5818
5920 5917 5913 5910 5906 5903 5899 5896 5892 5889 5885 5881 5877 5873 5871 5868 5864 5860 5856 5853 5848 5843 5839 5836 5832 5828 5825 5822 5818 5815 5813 5810 5798 5801 5800 5802 5800 5798 5797 5797 5797 5800 5801
5916 5913 5910 5906 5902 5898 5894 5891 5888 5884 5881 5878 5874 5870 5867 5863 5859 5855 5851 5847 5843 5839 5835 5831 5827 5822 5818 5815 5811 5806 5803 5801 5794 5789 5791 5790 5782 5780 5780 5780 5782 5782 5781
5913 5910 5906 5902 5898 5894 5890 5887 5883 5880 5876 5873 5869 5866 5863 5860 5856 5852 5847 5843 5839 5835 5831 5827 5823 5818 5813 5807 5801 5797 5793 5791 5787 5785 5769 5766 5770 5767 5769 5769 5766 5766 5767
5909 5906 5902 5898 5894 5890 5886 5883 5879 5874 5870 5866 5863 5860 5857 5855 5851 5847 5843 5839 5835 5830 5825 5819 5814 5808 5802 5797 5792 5787 5783 5778 5776 5772 5769 5764 5763 5764 5761 5760 5758 5755 5756
5906 5903 5899 5895 5891 5887 5883 5879 5874 5870 5866 5862 5859 5855 5852 5849 5845 5840 5836 5831 5826 5820 5814 5808 5803 5796 5790 5783 5777 5773 5769 5765 5764 5763 5760 5757 5755 5754 5753 5750 5748 5747 5746
5902 5899 5896 5892 5888 5883 5879 5874 5870 5866 5862 5857 5854 5850 5847 5843 5838 5833 5828 5822 5816 5810 5804 5798 5791 5784 5778 5772 5768 5764 5761 5758 5755 5753 5752 5748 5746 5744 5743 5741 5739 5737 5736
5898 5895 5892 5888 5883 5879 5874 5869 5864 5859 5855 5852 5848 5844 5840 5836 5831 5826 5820 5814 5807 5801 5793 5786 5779 5774 5769 5765 5762 5759 5755 5752 5747 5744 5741 5739 5736 5734 5732 5731 5729 5728 5727
5894 5891 5887 5884 5879 5873 5868 5863 5858 5853 5848 5844 5840 5837 5833 5829 5824 5818 5813 5806 5799 5792 5784 5777 5771 5766 5763 5759 5755 5752 5747 5743 5740 5735 5732 5730 5728 5725 5723 5720 5718 5718 5718
5890 5886 5882 5878 5873 5867 5861 5856 5851 5846 5841 5837 5834 5831 5826 5821 5816 5810 5803 5796 5788 5782 5775 5770 5766 5762 5757 5753 5749 5745 5741 5737 5733 5729 5725 5721 5718 5715 5713 5711 5709 5707 5706
5885 5881 5877 5872 5867 5861 5855 5850 5844 5839 5835 5831 5828 5824 5819 5813 5807 5801 5794 5786 5779 5773 5768 5764 5760 5755 5751 5746 5742 5737 5733 5729 5725 5720 5716 5713 5709 5706 5703 5701 5698 5696 5694
5879 5875 5870 5866 5860 5854 5848 5843 5839 5835 5831 5827 5823 5819 5813 5807 5800 5793 5786 5778 5771 5767 5762 5758 5753 5747 5742 5737 5733 5728 5723 5719 5714 5710 5706 5702 5698 5695 5692 5689 5686 5684 5683
5872 5868 5863 5859 5853 5848 5843 5838 5834 5830 5826 5821 5816 5811 5806 5799 5792 5785 5777 5771 5766 5761 5756 5750 5745 5740 5734 5728 5723 5718 5712 5707 5702 5698 5694 5690 5687 5683 5679 5676 5673 5671 5668
5866 5862 5857 5852 5848 5843 5839 5834 5829 5824 5819 5814 5809 5804 5798 5791 5784 5777 5770 5765 5759 5754 5748 5742 5737 5732 5726 5720 5714 5707 5701 5695 5690 5685 5680 5676 5672 5669 5666 5663 5660 5656 5654
5861 5856 5850 5846 5841 5836 5831 5827 5822 5817 5812 5808 5803 5796 5790 5784 5776 5769 5763 5757 5751 5746 5740 5734 5728 5721 5715 5709 5703 5697 5690 5684 5679 5673 5668 5663 5659 5655 5652 5648 5645 5642 5639
5854 5849 5844 5840 5835 5829 5824 5820 5816 5810 5804 5799 5794 5788 5782 5775 5769 5763 5757 5750 5744 5738 5732 5726 5719 5712 5705 5698 5692 5685 5679 5673 5667 5662 5657 5652 5647 5643 5638 5635 5631 5628 5625
5848 5842 5838 5833 5828 5823 5818 5813 5809 5804 5798 5792 5787 5782 5774 5767 5762 5756 5749 5743 5736 5730 5723 5716 5709 5702 5695 5688 5681 5674 5668 5662 5656 5650 5645 5640 5635 5632 5627 5624 5620 5617 5614
5839 5834 5830 5825 5820 5815 5811 5807 5802 5797 5791 5785 5779 5773 5766 5760 5755 5750 5742 5735 5729 5722 5714 5706 5700 5693 5686 5679 5672 5665 5658 5652 5646 5640 5635 5630 5625 5621 5616 5613 5609 5606 5603
5830 5826 5821 5816 5811 5807 5803 5800 5796 5791 5783 5777 5771 5765 5759 5753 5748 5742 5735 5728 5721 5713 5705 5697 5690 5682 5675 5669 5662 5655 5648 5642 5636 5631 5626 5621 5616 5612 5608 5604 5601 5597 5593
5821 5817 5812 5807 5802 5798 5794 5791 5788 5783 5776 5769 5762 5758 5753 5746 5741 5735 5728 5720 5710 5703 5695 5688 5680 5673 5666 5659 5652 5645 5639 5633 5627 5622 5617 5613 5608 5604 5600 5596 5591 5587 5583
5813 5808 5802 5797 5793 5789 5786 5783 5779 5773 5768 5762 5757 5752 5746 5739 5732 5726 5719 5710 5702 5695 5687 5679 5672 5665 5657 5651 5644 5637 5631 5625 5620 5615 5610 5605 5601 5596 5592 5587 5583 5578 5573